Location: Newark
(30.0333°N, 31.2167°E)
Time: 11:37:20
(UTC+00:00)

Tiros 1 - Pass Details

Date: 28 January 2020
Orbit: 631 x 664 km, 48.4° (Epoch: 22 February)

Event Time Altitude Azimuth Distance (km) Brightness Sun altitude
Rises 15:45:28 0° 315° (NW) 2,973 10.9 -4.3°
Reaches altitude 10° 15:47:50 10° 319° (NW) 2,064 10.1 -4.8°
Maximum altitude 15:52:33 60° 39° (NE) 752 7.3 -5.8°
Drops below altitude 10° 15:57:17 10° 120° (ESE) 2,070 9.4 -6.8°
Sets 15:59:39 0° 124° (ESE) 2,981 10.2 -7.3°
